CW7710 Weather Reports


Display with metric or nautical units.
time (UTC)temp
F
wind
direction
speed
MPH
gust
MPH
rain 1hr
in
rain 24hr
in
rain mn
in
humidity
%
barometer
mb
20260504185345 58 21 9.0 0.0 0.00 0.00 0.00 42 1014.0
20260504184333 57 346 9.0 0.0 0.00 0.00 0.00 42 1014.0
20260504183338 58 32 8.0 0.0 0.00 0.00 0.00 43 1014.1
20260504182345 57 42 9.0 0.0 0.00 0.00 0.00 43 1014.1
20260504181328 57 345 6.0 0.0 0.00 0.00 0.00 44 1014.1
20260504180336 57 340 7.0 0.0 0.00 0.00 0.00 43 1013.4
20260504175344 57 35 9.0 0.0 0.00 0.00 0.00 42 1014.4
20260504174328 57 357 8.0 0.0 0.00 0.00 0.00 43 1014.4
20260504173333 57 332 10.0 0.0 0.00 0.00 0.00 44 1014.5
20260504172341 57 30 8.0 0.0 0.00 0.00 0.00 44 1014.5
20260504171325 56 23 6.0 0.0 0.00 0.00 0.00 45 1014.7
20260504170328 56 332 9.0 0.0 0.00 0.00 0.00 46 1014.8
20260504160340 54 12 12.0 0.0 0.00 0.00 0.00 47 1015.4
20260504150328 53 107 4.0 0.0 0.00 0.00 0.00 47 1015.6
20260504140340 51 86 10.0 0.0 0.00 0.00 0.00 50 1013.2
20260504130334 46 311 12.0 0.0 0.00 0.00 0.00 58 1015.1
20260504110348 50 18 20.0 0.0 0.00 0.00 0.00 48 1013.1
20260504100338 44 34 5.0 0.0 0.00 0.00 0.00 69 1012.0
20260504081337 44 138 6.0 0.0 0.00 0.00 0.00 70 1011.2
20260504080341 41 176 5.0 0.0 0.00 0.00 0.00 69 1010.9
20260504070327 45 63 2.0 0.0 0.00 0.00 0.00 61 1011.5
20260504050337 53 269 4.0 0.0 0.00 0.00 0.00 49 1011.4
20260504045400 53 257 4.0 0.0 0.00 0.00 0.00 49 1010.5
20260504044326 54 254 4.0 0.0 0.00 0.00 0.00 47 1010.4
20260504043331 55 229 5.0 0.0 0.00 0.00 0.00 44 1010.9
20260504042335 56 266 6.0 0.0 0.00 0.00 0.00 45 1010.8
20260504041339 56 264 6.0 0.0 0.00 0.00 0.00 44 1010.8
20260504040327 53 275 3.0 0.0 0.00 0.00 0.00 48 1010.9
20260504035351 54 196 3.0 0.0 0.00 0.00 0.00 47 1010.4
20260504034335 54 176 5.0 0.0 0.00 0.00 0.00 48 1010.2
20260504033339 54 181 6.0 0.0 0.00 0.00 0.00 48 1010.1
20260504032326 55 181 3.0 0.0 0.00 0.00 0.00 46 1010.0
20260504031353 56 200 2.0 0.0 0.00 0.00 0.00 45 1009.6
20260504030336 56 200 3.0 0.0 0.00 0.00 0.00 44 1010.4
20260504025339 61 194 1.0 0.0 0.00 0.00 0.00 38 1009.7
20260504024328 65 37 2.0 0.0 0.00 0.00 0.00 33 1009.5
20260504023332 67 30 4.0 0.0 0.00 0.00 0.00 32 1009.5
20260504022336 68 24 4.0 0.0 0.00 0.00 0.00 30 1009.3
20260504021341 70 30 4.0 0.0 0.00 0.00 0.00 29 1009.7
20260504020329 71 16 4.0 0.0 0.00 0.00 0.00 28 1010.6
20260504015354 71 26 5.0 0.0 0.00 0.00 0.00 27 1009.1
20260504014338 72 21 6.0 0.0 0.00 0.00 0.00 27 1009.5
20260504013403 72 27 7.0 0.0 0.00 0.00 0.00 26 1009.6
20260504012346 72 7 10.0 0.0 0.00 0.00 0.00 26 1009.6
20260504011334 73 16 10.0 0.0 0.00 0.00 0.00 26 1009.6
20260504010338 74 17 9.0 0.0 0.00 0.00 0.00 24 1010.5
20260504005327 74 9 10.0 0.0 0.00 0.00 0.00 24 1009.7
20260504004330 75 38 11.0 0.0 0.00 0.00 0.00 23 1009.4
20260504003354 74 333 5.0 0.0 0.00 0.00 0.00 23 1009.5
20260504002341 74 11 6.0 0.0 0.00 0.00 0.00 22 1009.9
20260504001326 73 269 9.0 0.0 0.00 0.00 0.00 24 1009.9
20260504000334 73 263 8.0 0.0 0.00 0.00 0.00 26 1009.9
20260503235338 74 260 7.0 0.0 0.00 0.00 0.00 23 1010.1
20260503234327 73 241 7.0 0.0 0.00 0.00 0.00 26 1009.6
20260503233331 74 242 8.0 0.0 0.00 0.00 0.00 24 1010.3
20260503232355 75 233 5.0 0.0 0.00 0.00 0.00 23 1010.3
20260503231337 75 205 6.0 0.0 0.00 0.00 0.00 23 1010.4
20260503230348 75 218 3.0 0.0 0.00 0.00 0.00 23 1010.6
20260503225330 74 71 5.0 0.0 0.00 0.00 0.00 24 1010.5
20260503224354 74 266 5.0 0.0 0.00 0.00 0.00 26 1010.5
20260503223337 73 291 5.0 0.0 0.00 0.00 0.00 28 1011.0
20260503222326 74 304 6.0 0.0 0.00 0.00 0.00 25 1010.9
20260503221332 75 318 6.0 0.0 0.00 0.00 0.00 25 1011.0
20260503220337 74 286 4.0 0.0 0.00 0.00 0.00 24 1011.3
20260503215340 75 283 12.0 0.0 0.00 0.00 0.00 27 1011.7
20260503214344 74 204 11.0 0.0 0.00 0.00 0.00 25 1011.2
20260503213331 74 253 7.0 0.0 0.00 0.00 0.00 27 1012.2
20260503212356 74 264 7.0 0.0 0.00 0.00 0.00 27 1012.5
20260503211323 73 298 8.0 0.0 0.00 0.00 0.00 28 1012.7
20260503210332 73 242 8.0 0.0 0.00 0.00 0.00 28 1012.9
20260503205341 73 251 7.0 0.0 0.00 0.00 0.00 28 1012.6
20260503204405 72 346 7.0 0.0 0.00 0.00 0.00 28 1012.9
20260503203328 71 281 8.0 0.0 0.00 0.00 0.00 29 1013.2
20260503202333 72 257 9.0 0.0 0.00 0.00 0.00 28 1013.2
20260503201336 72 265 5.0 0.0 0.00 0.00 0.00 31 1013.4
20260503200327 71 176 7.0 0.0 0.00 0.00 0.00 30 1013.5
20260503195330 72 247 7.0 0.0 0.00 0.00 0.00 32 1014.0
20260503194334 71 332 2.0 0.0 0.00 0.00 0.00 30 1013.6
20260503193359 70 228 4.0 0.0 0.00 0.00 0.00 30 1013.9
20260503192327 71 16 4.0 0.0 0.00 0.00 0.00 30 1014.0
20260503191354 70 147 3.0 0.0 0.00 0.00 0.00 31 1014.2
20260503190337 69 124 8.0 0.0 0.00 0.00 0.00 31 1013.9